Whiting Fld NAS, FL

11:07 PM CST on November 21, 2019 (GMT -0600)
Whiting Field Naval Air Station (North)

Weather History for KNSE - September, 2019

Change the Weather History Date:

Tuesday, September 17, 2019

  Actual Average Record
Temperature  
Mean Temperature 86 °F -  
Max Temperature 99 °F 83 °F 99 °F (2019)
Min Temperature 73 °F 67 °F 60 °F (1999)
Cooling Degree Days 20    
Growing Degree Days 36 (Base 50)    
Moisture  
Dew Point 69 °F    
Average Humidity 66    
Maximum Humidity 96    
Minimum Humidity 28    
Precipitation  
Precipitation 0.00 in - - ()
Sea Level Pressure  
Sea Level Pressure 29.94 in    
Wind  
Wind Speed 5 mph (WNW)    
Max Wind Speed 9 mph    
Max Gust Speed -    
Visibility 10 miles    
Events      
Averages and records for this station are not official NWS values.
T = Trace of Precipitation, MM = Missing Value Source: NWS Daily Summary

Daily Weather History Graph

Daily Weather History Graph

Search for Another Location

Airport or City:

Astronomy

Sep. 17, 2019 Rise Set
Actual Time 6:33 AM CDT 6:51 PM CDT
Civil Twilight 6:09 AM CDT 7:15 PM CDT
Nautical Twilight 5:41 AM CDT 7:43 PM CDT
Astronomical Twilight 5:12 AM CDT 8:12 PM CDT
Moon 9:06 PM CDT (9/17) 9:26 AM CDT (9/17)
Length of Visible Light 13h 06m
Length of Day
12h 17m
Waning Gibbous, 89% of the Moon is Illuminated
Sep 17
Waning Gibbous
Sep 21
Last Quarter
Sep 28
New
Oct 5
First Quarter
Oct 13
Full

Hourly Weather History & Observations

Time (CDT) Temp. Heat Index Dew Point Humidity Pressure Visibility Wind Dir Wind Speed Gust Speed Precip Events Conditions
12:56 AM 77.0 °F - 73.9 °F 90% 29.94 in 10.0 mi WNW 4.6 mph - N/A   Clear
1:56 AM 75.9 °F - 73.9 °F 94% 29.94 in 10.0 mi NNW 3.5 mph - N/A   Clear
2:56 AM 75.0 °F - 73.0 °F 94% 29.93 in 10.0 mi WNW 3.5 mph - N/A   Clear
3:56 AM 73.0 °F - 72.0 °F 96% 29.93 in 10.0 mi WNW 3.5 mph - N/A   Clear
4:56 AM 73.0 °F - 71.1 °F 93% 29.94 in 10.0 mi WNW 3.5 mph - N/A   Clear
5:56 AM 73.0 °F - 71.1 °F 93% 29.95 in 10.0 mi NNW 3.5 mph - N/A   Partly Cloudy
6:56 AM 73.0 °F - 71.1 °F 93% 29.97 in 10.0 mi NNW 3.5 mph - N/A   Partly Cloudy
7:56 AM 77.0 °F - 72.0 °F 84% 29.97 in 10.0 mi NW 5.8 mph - N/A   Partly Cloudy
8:56 AM 82.9 °F 87.5 °F 71.1 °F 67% 29.98 in 10.0 mi North 6.9 mph - N/A   Partly Cloudy
9:56 AM 88.0 °F 93.8 °F 71.1 °F 57% 29.99 in 10.0 mi Variable 4.6 mph - N/A   Clear
10:56 AM 91.9 °F 96.9 °F 69.1 °F 47% 29.98 in 10.0 mi NW 6.9 mph - N/A   Clear
11:56 AM 95.0 °F 99.0 °F 66.9 °F 40% 29.97 in 10.0 mi West 4.6 mph - N/A   Partly Cloudy
12:56 PM 96.1 °F 97.3 °F 63.0 °F 33% 29.95 in 10.0 mi SSW 4.6 mph - N/A   Partly Cloudy
1:56 PM 95.0 °F 95.6 °F 62.1 °F 33% 29.93 in 10.0 mi Variable 4.6 mph - N/A   Scattered Clouds
2:56 PM 98.1 °F 99.1 °F 62.1 °F 30% 29.90 in 10.0 mi Variable 3.5 mph - N/A   Scattered Clouds
3:56 PM 98.1 °F 98.1 °F 60.1 °F 28% 29.88 in 10.0 mi Variable 6.9 mph - N/A   Scattered Clouds
4:56 PM 97.0 °F 97.8 °F 62.1 °F 31% 29.88 in 10.0 mi West 8.1 mph - N/A   Partly Cloudy
5:56 PM 93.0 °F 95.0 °F 64.9 °F 39% 29.88 in 10.0 mi SSW 8.1 mph - N/A   Clear
6:56 PM 88.0 °F 92.1 °F 69.1 °F 53% 29.88 in 10.0 mi West 8.1 mph - N/A   Clear
7:56 PM 84.9 °F 88.8 °F 69.1 °F 59% 29.90 in 10.0 mi WSW 6.9 mph - N/A   Clear
8:56 PM 82.0 °F 86.3 °F 71.1 °F 69% 29.93 in 10.0 mi West 8.1 mph - N/A   Clear
9:56 PM 80.1 °F 83.8 °F 72.0 °F 76% 29.94 in 10.0 mi West 8.1 mph - N/A   Clear
10:45 PM 79.0 °F - 72.0 °F 79% 29.98 in 10.0 mi West 8.1 mph - N/A   Clear
10:56 PM 79.0 °F - 72.0 °F 79% 29.93 in 10.0 mi West 9.2 mph - N/A   Clear
11:56 PM 77.0 °F - 73.0 °F 88% 29.92 in 10.0 mi WNW 5.8 mph - N/A   Clear